W0CHP-13 Weather Reports


time (UTC)temp
C
wind
direction
speed
KPH
gust
KPH
rain 1hr
cm
rain 24hr
cm
rain mn
cm
humidity
%
barometer
mb
20260906134917 21 43 0.0 1.6 0.00 0.00 0.00 90 1018.5
20260906133916 21 54 0.0 3.2 0.00 0.00 0.00 92 1018.5
20260906132915 20 55 1.6 1.6 0.00 0.00 0.00 92 1018.5
20260906131916 20 55 0.0 0.0 0.00 0.00 0.00 92 1018.9
20260906130915 20 62 0.0 1.6 0.00 0.00 0.00 92 1018.9
20260906125918 20 128 0.0 1.6 0.00 0.00 0.00 92 1018.9
20260906124916 20 138 0.0 1.6 0.00 0.00 0.00 93 1018.9
20260906123915 20 60 0.0 0.0 0.00 0.00 0.00 93 1018.5
20260906122918 20 62 0.0 3.2 0.00 0.00 0.00 94 1018.5
20260906121916 20 79 0.0 1.6 0.00 0.00 0.00 93 1018.5
20260906120915 20 50 0.0 1.6 0.00 0.00 0.00 93 1018.2
20260906115918 20 95 0.0 0.0 0.00 0.00 0.00 94 1018.2
20260906114916 20 57 0.0 0.0 0.00 0.00 0.00 95 1017.9
20260906113915 20 57 0.0 0.0 0.00 0.00 0.00 94 1017.9
20260906112917 20 48 0.0 0.0 0.00 0.00 0.00 94 1017.5
20260906111916 20 135 0.0 1.6 0.00 0.00 0.00 94 1017.9
20260906110918 20 46 0.0 0.0 0.00 0.00 0.00 94 1017.5
20260906105917 20 60 0.0 1.6 0.00 0.00 0.00 94 1017.5
20260906104915 20 59 0.0 1.6 0.00 0.00 0.00 94 1017.5
20260906103918 20 36 0.0 0.0 0.00 0.00 0.00 94 1017.5
20260906102916 20 41 0.0 1.6 0.00 0.00 0.00 94 1017.5
20260906101918 20 58 0.0 1.6 0.00 0.00 0.00 93 1017.5
20260906100917 20 56 0.0 1.6 0.00 0.00 0.00 94 1017.5
20260906095915 20 44 0.0 0.0 0.00 0.00 0.00 93 1016.8
20260906094918 20 58 0.0 0.0 0.00 0.00 0.00 94 1016.8
20260906093916 20 61 0.0 0.0 0.00 0.00 0.00 93 1016.8
20260906092915 20 71 0.0 0.0 0.00 0.00 0.00 93 1016.8
20260906091917 20 37 0.0 1.6 0.00 0.00 0.00 93 1016.8
20260906090916 20 58 0.0 0.0 0.00 0.00 0.00 93 1016.8
20260906085915 20 117 0.0 1.6 0.00 0.00 0.00 93 1016.8
20260906084917 20 55 0.0 1.6 0.00 0.00 0.00 93 1017.2
20260906083916 20 66 1.6 11.3 0.00 0.00 0.00 93 1016.8
20260906082915 20 71 0.0 1.6 0.00 0.00 0.00 93 1016.8
20260906081916 20 80 0.0 0.0 0.00 0.00 0.00 93 1016.8
20260906080915 20 59 1.6 4.8 0.00 0.00 0.00 94 1017.2
20260906075917 20 12 0.0 0.0 0.00 0.00 0.00 94 1016.8
20260906074917 20 337 0.0 0.0 0.00 0.00 0.00 94 1017.2
20260906073915 20 36 0.0 3.2 0.00 0.00 0.00 93 1016.8
20260906072917 20 152 1.6 3.2 0.00 0.00 0.00 94 1016.8
20260906071915 20 97 0.0 0.0 0.00 0.00 0.00 94 1016.8
20260906070918 20 69 0.0 0.0 0.00 0.00 0.00 93 1016.8
20260906065916 20 55 0.0 0.0 0.00 0.00 0.00 93 1017.5
20260906064915 20 337 0.0 0.0 0.00 0.00 0.00 93 1017.2
20260906063917 20 13 0.0 0.0 0.00 0.00 0.00 93 1017.5
20260906062916 20 331 0.0 0.0 0.00 0.00 0.00 94 1017.2
20260906061917 20 19 0.0 0.0 0.00 0.00 0.00 93 1017.5
20260906060915 20 22 0.0 0.0 0.00 0.00 0.00 92 1017.2
20260906055917 21 26 0.0 0.0 0.00 0.00 0.00 92 1017.2
20260906054916 21 352 0.0 0.0 0.00 0.00 0.00 92 1017.2
20260906053915 21 13 0.0 0.0 0.00 0.00 0.00 92 1017.2
20260906052917 21 333 0.0 0.0 0.00 0.00 0.00 91 1017.5
20260906051916 21 325 0.0 0.0 0.00 0.00 0.00 91 1017.5
20260906050918 21 325 0.0 0.0 0.00 0.00 0.00 91 1017.2
20260906045917 21 25 0.0 0.0 0.00 0.00 0.00 91 1017.1
20260906044915 21 349 0.0 0.0 0.00 0.00 0.00 90 1016.8
20260906043918 21 331 0.0 0.0 0.00 0.00 0.00 90 1017.2
20260906042918 21 334 0.0 0.0 0.00 0.00 0.00 90 1016.8
20260906041917 21 349 0.0 0.0 0.00 0.00 0.00 89 1017.2
20260906040915 21 352 0.0 0.0 0.00 0.00 0.00 89 1017.2
20260906035917 21 352 0.0 0.0 0.00 0.00 0.00 88 1017.5
20260906034915 22 352 0.0 0.0 0.00 0.00 0.00 88 1017.2
20260906033917 22 352 0.0 0.0 0.00 0.00 0.00 88 1017.1
20260906032916 22 343 0.0 0.0 0.00 0.00 0.00 86 1016.8
20260906031918 22 343 0.0 0.0 0.00 0.00 0.00 86 1016.8
20260906030916 22 343 0.0 0.0 0.00 0.00 0.00 86 1016.5
20260906025915 22 328 0.0 0.0 0.00 0.00 0.00 85 1016.5
20260906024918 22 16 0.0 0.0 0.00 0.00 0.00 85 1016.5
20260906023915 22 330 0.0 0.0 0.00 0.00 0.00 84 1016.1
20260906022918 22 329 0.0 0.0 0.00 0.00 0.00 84 1016.1
20260906021918 22 335 0.0 0.0 0.00 0.00 0.00 83 1015.8
20260906020917 23 336 0.0 0.0 0.00 0.00 0.00 83 1015.8
20260906015918 23 336 0.0 0.0 0.00 0.00 0.00 82 1015.5
20260906014915 23 336 0.0 0.0 0.00 0.00 0.00 83 1015.4
20260906013918 23 335 0.0 0.0 0.00 0.00 0.00 83 1015.4
20260906012917 23 12 0.0 0.0 0.00 0.00 0.00 83 1015.1
20260906011918 23 10 0.0 0.0 0.00 0.00 0.00 80 1014.8
20260906010916 23 16 0.0 0.0 0.00 0.00 0.00 78 1014.8
20260906005915 24 16 0.0 0.0 0.00 0.00 0.00 78 1014.8
20260906004917 25 16 0.0 0.0 0.00 0.00 0.00 77 1014.4
20260906003917 25 0 0.0 0.0 0.00 0.00 0.00 76 1014.1
20260906002916 25 28 0.0 1.6 0.00 0.00 0.00 76 1014.4
20260906001916 25 32 1.6 4.8 0.00 0.00 0.00 75 1014.4
20260906000918 25 2 0.0 3.2 0.00 0.00 0.00 74 1014.4
20260905235916 25 33 0.0 1.6 0.00 0.00 0.00 74 1014.1
20260905234918 26 25 0.0 3.2 0.00 0.00 0.00 73 1014.1
20260905233917 26 21 1.6 3.2 0.00 0.00 0.00 72 1014.1
20260905232915 26 9 0.0 1.6 0.00 0.00 0.00 73 1014.1
20260905231918 26 26 3.2 6.4 0.00 0.00 0.00 71 1014.1
20260905230916 26 64 1.6 4.8 0.00 0.00 0.00 70 1014.4
20260905225918 26 66 0.0 3.2 0.00 0.00 0.00 71 1014.1
20260905224917 26 85 0.0 1.6 0.00 0.00 0.00 71 1014.4
20260905223915 27 39 3.2 4.8 0.00 0.00 0.00 70 1014.4
20260905222918 27 42 1.6 3.2 0.00 0.00 0.00 70 1014.4
20260905221919 27 52 3.2 4.8 0.00 0.00 0.00 69 1014.8
20260905220917 27 30 0.0 1.6 0.00 0.00 0.00 69 1014.8
20260905215917 27 57 0.0 1.6 0.00 0.00 0.00 70 1014.4
20260905214916 27 49 1.6 3.2 0.00 0.00 0.00 69 1014.4
20260905213918 27 53 1.6 4.8 0.00 0.00 0.00 70 1014.8
20260905212915 28 51 3.2 4.8 0.00 0.00 0.00 68 1014.8
20260905211918 28 53 3.2 3.2 0.00 0.00 0.00 66 1014.8
20260905210916 29 57 1.6 3.2 0.00 0.00 0.00 65 1015.1
20260905205918 28 91 1.6 3.2 0.00 0.00 0.00 66 1015.1
20260905204916 28 147 0.0 1.6 0.00 0.00 0.00 68 1015.1
20260905203918 28 76 0.0 1.6 0.00 0.00 0.00 65 1015.1
20260905202918 29 101 1.6 3.2 0.00 0.00 0.00 64 1015.1
20260905201916 28 77 0.0 1.6 0.00 0.00 0.00 66 1015.1
20260905200915 28 73 1.6 1.6 0.00 0.00 0.00 68 1015.1
20260905195916 28 343 1.6 4.8 0.00 0.00 0.00 67 1015.4
20260905194919 28 5 1.6 3.2 0.00 0.00 0.00 70 1015.4
20260905193916 28 353 1.6 1.6 0.00 0.00 0.00 69 1015.4
20260905192917 28 4 1.6 4.8 0.00 0.00 0.00 69 1015.8
20260905191915 27 354 3.2 4.8 0.00 0.00 0.00 68 1015.8
20260905190917 27 340 1.6 4.8 0.00 0.00 0.00 71 1015.8
20260905185916 27 57 1.6 3.2 0.00 0.00 0.00 73 1015.8
20260905184916 27 20 1.6 4.8 0.00 0.00 0.00 73 1015.8
20260905183918 26 317 0.0 1.6 0.00 0.00 0.00 77 1016.1
20260905182917 26 294 0.0 1.6 0.00 0.00 0.00 78 1016.1
20260905181916 26 7 1.6 1.6 0.00 0.00 0.00 77 1016.1
20260905180917 25 45 0.0 1.6 0.00 0.00 0.00 79 1016.1
20260905175915 25 350 0.0 1.6 0.00 0.00 0.00 81 1016.1
20260905174917 25 52 0.0 1.6 0.00 0.00 0.00 81 1016.1
20260905173919 25 1 0.0 1.6 0.00 0.00 0.00 82 1016.2
20260905172917 25 50 0.0 1.6 0.00 0.00 0.00 84 1016.5
20260905171915 25 355 1.6 3.2 0.00 0.00 0.00 83 1016.5
20260905170917 24 71 0.0 0.0 0.00 0.00 0.00 83 1016.5
20260905165916 25 4 1.6 1.6 0.00 0.00 0.00 84 1016.5
20260905164917 24 341 0.0 1.6 0.00 0.00 0.00 84 1016.5
20260905163919 24 53 1.6 1.6 0.00 0.00 0.00 84 1016.5
20260905162916 24 43 0.0 1.6 0.00 0.00 0.00 85 1016.5
20260905161918 23 358 0.0 0.0 0.00 0.00 0.00 86 1016.5
20260905160917 23 36 0.0 0.0 0.00 0.00 0.00 86 1016.5
20260905155915 23 25 0.0 0.0 0.00 0.00 0.00 86 1016.5
20260905154917 23 70 1.6 1.6 0.00 0.00 0.00 86 1016.1
20260905153916 23 53 0.0 1.6 0.00 0.00 0.00 86 1016.1
20260905152918 23 68 1.6 3.2 0.00 0.00 0.00 86 1016.5
20260905151918 23 75 0.0 1.6 0.00 0.00 0.00 87 1016.1
20260905151416 23 59 0.0 0.0 0.00 0.00 0.00 88 1016.1
20260905150415 23 79 0.0 1.6 0.00 0.00 0.00 87 1015.8
20260905145417 23 74 0.0 0.0 0.00 0.00 0.00 88 1015.8
20260905144415 23 69 0.0 0.0 0.00 0.00 0.00 88 1015.8
20260905143417 23 39 0.0 0.0 0.00 0.00 0.00 88 1015.8
20260905143015 23 34 0.0 0.0 0.00 0.00 0.00 88 1015.8
20260905141918 23 43 0.0 0.0 0.00 0.00 0.00 89 1015.5
20260905140916 22 55 0.0 1.6 0.00 0.00 0.00 89 1015.4
20260905135918 22 333 0.0 1.6 0.00 0.00 0.00 89 1015.4